Starlink 32545

operational
NORAD ID: 62135 Int'l Des: 2024-222 Owner: SPXS Country: US Constellation: starlink
LEOCIRCULAR

Über Starlink 32545

Beschreibung wird geladen...

Live-Position

3D-Globus wird geladen...

Nächste Überflüge

Höhenverlauf

Altitude vs Time

uPlot chart will show altitude changes over time

Zweizeiliger Elementsatz

1 62135U 24222X 25306.50836920 .00023823 00000-0 87192-3 0 9996
2 62135 42.9969 134.8324 0000743 285.2049 74.8721 15.27599033 53345
Epoch: 2. Nov. 2025 • Age: 14 hours

Aktueller Status

Höhe 495.8 km
Geschwindigkeit 7.62 km/s
Subsatellitenpunkt -43.15°S, 30.58°W
Startdatum 27. Nov. 2024
Alter 0.9 years
Typ internet

Technische Details

Klassifizierung Payload
Masse 730.00 kg
Trockenmasse 700.00 kg
Gesamtmasse 730.00 kg
Länge 0.30 m
Durchmesser 4.10 m
Spannweite 29.00 m
Form Box + pan
Hersteller SPXS
Bus-Typ Starlink V2M
Phasenstatus In Orbit
Besitzer/Staat SPXS/US

Große Konstellationen

Loading constellations...